Weather History for Imperial, CA

Change the Weather History Date:

Saturday, March 16, 2013

  Actual Average Record
Temperature  
Mean Temperature 76 °F -  
Max Temperature 93 °F 79 °F 100 °F (2007)
Min Temperature 60 °F 50 °F 38 °F (1956)
Cooling Degree Days 12    
Growing Degree Days 26 (Base 50)    
Moisture  
Dew Point 34 °F    
Average Humidity 24    
Maximum Humidity 46    
Minimum Humidity 9    
Precipitation  
Precipitation 0.00 in - - ()
Sea Level Pressure  
Sea Level Pressure 29.75 in    
Wind  
Wind Speed 5 mph (WSW)    
Max Wind Speed 15 mph    
Max Gust Speed -    
Visibility 10 miles    
Events      
Averages and records for this station are not official NWS values.
T = Trace of Precipitation, MM = Missing Value Source: NWS Daily Summary

Daily Weather History Graph

Daily Weather History Graph

Search for Another Location

Airport:

Trip Planner

Search our weather history database for the weather conditions in past years. The results will help you decide how hot, cold, wet, or windy it might be!

Date:

Astronomy

Mar. 16, 2013 Rise Set
Actual Time 6:50 AM PDT 6:51 PM PDT
Civil Twilight 6:26 AM PDT 7:15 PM PDT
Nautical Twilight 5:57 AM PDT 7:44 PM PDT
Astronomical Twilight 5:28 AM PDT 8:13 PM PDT
Moon 9:39 AM PDT (3/16) 11:46 PM PDT (3/16)
Length of Visible Light 12h 49m
Length of Day
12h 00m
Waxing Crescent, 24% of the Moon is Illuminated
Mar 16
Waxing Crescent
Mar 19
First Quarter
Mar 27
Full
Apr 2
Last Quarter
Apr 10
New

Hourly Weather History & Observations

Time (PDT) Temp. Dew Point Humidity Pressure Visibility Wind Dir Wind Speed Gust Speed Precip Events Conditions
12:53 AM 72.0 °F 28.9 °F 20% 29.81 in 10.0 mi NW 4.6 mph - N/A   Clear
1:53 AM 70.0 °F 28.9 °F 22% 29.80 in 10.0 mi West 8.1 mph - N/A   Clear
2:53 AM 66.0 °F 30.0 °F 26% 29.78 in 10.0 mi SW 3.5 mph - N/A   Clear
3:53 AM 66.0 °F 28.0 °F 24% 29.79 in 10.0 mi SSW 6.9 mph - N/A   Clear
4:53 AM 61.0 °F 37.0 °F 41% 29.77 in 10.0 mi South 3.5 mph - N/A   Clear
5:53 AM 60.1 °F 37.9 °F 44% 29.77 in 10.0 mi SSE 8.1 mph - N/A   Clear
6:53 AM 61.0 °F 39.9 °F 46% 29.78 in 10.0 mi SSE 4.6 mph - N/A   Clear
7:53 AM 64.0 °F 39.9 °F 41% 29.78 in 10.0 mi South 6.9 mph - N/A   Clear
8:53 AM 69.1 °F 42.1 °F 38% 29.80 in 10.0 mi Calm Calm - N/A   Clear
9:53 AM 78.1 °F 42.1 °F 28% 29.82 in 10.0 mi Calm Calm - N/A   Clear
10:53 AM 82.0 °F 39.0 °F 22% 29.80 in 10.0 mi Calm Calm - N/A   Clear
11:53 AM 86.0 °F 34.0 °F 16% 29.78 in 10.0 mi NE 4.6 mph - N/A   Clear
12:53 PM 87.1 °F 30.0 °F 13% 29.76 in 10.0 mi North 3.5 mph - N/A   Clear
1:53 PM 90.0 °F 28.9 °F 11% 29.73 in 10.0 mi NW 3.5 mph - N/A   Clear
2:53 PM 91.9 °F 30.0 °F 11% 29.72 in 10.0 mi North 3.5 mph - N/A   Clear
3:53 PM 93.0 °F 30.0 °F 11% 29.69 in 10.0 mi WSW 3.5 mph - N/A   Clear
4:53 PM 93.0 °F 30.9 °F 11% 29.68 in 10.0 mi WNW 3.5 mph - N/A   Clear
5:53 PM 93.0 °F 26.1 °F 9% 29.68 in 10.0 mi SW 4.6 mph - N/A   Clear
6:53 PM 84.0 °F 39.0 °F 20% 29.69 in 10.0 mi WSW 12.7 mph - N/A   Clear
7:53 PM 81.0 °F 34.0 °F 18% 29.70 in 10.0 mi WSW 15.0 mph - N/A   Clear
8:53 PM 75.9 °F 37.9 °F 25% 29.73 in 10.0 mi West 11.5 mph - N/A   Clear
9:53 PM 73.0 °F 39.0 °F 29% 29.75 in 10.0 mi West 9.2 mph - N/A   Clear
10:53 PM 73.9 °F 33.1 °F 22% 29.75 in 10.0 mi WSW 9.2 mph - N/A   Clear
11:53 PM 68.0 °F 34.0 °F 28% 29.74 in 10.0 mi West 6.9 mph - N/A   Clear